STARLINK-1038, 44743

Orbit data source: Space-Track

STARLINK-1038, 44743 is a payload satellite owned by SpaceX/Seattle (US) in LEO that was launched on Mon, 11 Nov 2019 UTC via an FALCON 9 launch vehicle from the Air Force Eastern Test Range (AFETR). Payloads include a variety of satellites, spacecraft, and rockets equipped with specific instruments for various scientific and technological missions. These include communications satellites like Starlink; space stations such as the ISS; scientific satellites like the Hubble; Earth observation satellites from companies like Planet Labs, Umbra, and HawkEye 360; GPS; miniature CubeSats for education and research; and military/defense satellites.

Loading next visibility...
STARLINK-1038 details
Identifier
44743, 2019-074AG
Orbit
LEO
Last TLE update4 hours ago
Origin
Flag of USSpaceX/Seattle (US)
ManufacturerSpaceX/Seattle
MissionPartially operational Commercial Communications
Bus & MotorSTARLINK, Unknown motor
Mass260 kg wet, ~248 kg dry
Launch date (UTC)
2019-11-11 (5 years ago)
Launch vehicle
FALCON 9
Launch site
Air Force Eastern Test Range (AFETR)
Object type
Payload
Rocket body
Debris
Shape & HBRBox + 1 Pan, 8.86 m
Radar Cross Section13.562 m², Large (>1 m²)

Expand to show TLE details & history

TLE from 4 hours ago
0 STARLINK-1038
1 44743U 19074AG  24361.25001157  .00113954  00000-0  92695-3 0  9997
2 44743  53.0528  22.8684 0000994  80.3586  99.9095 15.69853540282446
Epoch: 2024-12-26T06:00Z
Definitive object data (Epoch: 2024-12-26T06:00:00.999Z)
Latitude-0.30634°
Longitude17.86124°
Altitude360.375 km
Speed7.694 km/s
True Right ascension13h 32m 23s
True Declination0° 18' 16"
Sunlit
Object was in daylight at TLE epoch
Visualization TLE readout
Latitude4.78344°
Longitude-159.57174°
Altitude359.443 km
Speed7.695 km/s
Apparent Right ascension23h 51m 09s
Apparent Declination-19° 54' 49"
Sunlit
Object is in full shadow
Visualization observer readout
Local Sidereal Time09:11:45
Azimuth288.529° WNW
Elevation-50.55°
Doppler factor1
Orbital elements
Apogee altitude360.264 km
Perigee altitude358.925 km
Semi-major axis6,737.731 km
Eccentricity0.0000994
Inclination53.0528°
RAAN22.8684°
Arg. of periapsis80.3586°
True anomaly99.92072°
Mean anomaly99.9095°
Eccentric anomaly99.91511°
Mean motion3.92439 °/min
BSTAR0.00092695
Orbital period91.73 mins
Loading maneuver chart data...

STARLINK-1038 Visibility forecast

Observer location: undefined°, undefined

Span
Click to sort rows by Start time (UTC) header in descending order
Start Az.
Max El. time (UTC)
Max El. Az.
Max El.
End time (UTC)
End Az.
4 mins2024-12-26 11:52:40.598Z281.715° WNW2024-12-26 11:53:40.598Z241.956° WSW34.315°2024-12-26 11:56:40.598Z150.65° SSE
|